RYR4982 LGTS-LGSA

Flight info

Callsign RYR4982
Flight time 0h 55m
Altitude 31000
Route LEKPO UL617 SKP UM749 ATV UP169 MANOK UL612 RUSOS
Aircraft B738/M-SDE2E3FGHIRWXY/LB1

Departure

Time 2026-04-30 21:53
Airport Thessaloniki Macedonia International Airport (LGTS)

Arrival

Time 2026-04-30 22:49
Airport Chania International Airport (LGSA)
Time Latitude Longitude Altitude Speed Heading
2026-04-30 21:42 40.52428 22.97425 15 ft 0 kts 45°
2026-04-30 21:46 40.52413 22.97405 14 ft 4 kts 45°
2026-04-30 21:47 40.52393 22.97384 15 ft 4 kts 14°
2026-04-30 21:47 40.52370 22.97388 14 ft 4 kts 322°
2026-04-30 21:47 40.52363 22.97395 15 ft 1 kts 316°
2026-04-30 21:50 40.52364 22.97395 15 ft 1 kts 316°
2026-04-30 21:50 40.52376 22.97380 14 ft 4 kts 315°
2026-04-30 21:50 40.52405 22.97338 14 ft 8 kts 311°
2026-04-30 21:50 40.52450 22.97271 14 ft 11 kts 311°
2026-04-30 21:51 40.52510 22.97183 15 ft 14 kts 311°
2026-04-30 21:51 40.52584 22.97090 16 ft 16 kts 329°
2026-04-30 21:51 40.52693 22.97048 16 ft 17 kts 346°
2026-04-30 21:51 40.52813 22.97006 18 ft 19 kts 345°
2026-04-30 21:52 40.52946 22.96966 17 ft 20 kts 347°
2026-04-30 21:52 40.53066 22.96900 18 ft 17 kts 282°
2026-04-30 21:52 40.52987 22.96785 17 ft 22 kts 179°
2026-04-30 21:52 40.52588 22.96899 16 ft 102 kts 166°
2026-04-30 21:53 40.51633 22.97197 33 ft 175 kts 168°
2026-04-30 21:53 40.50366 22.97593 674 ft 190 kts 168°
2026-04-30 21:53 40.49099 22.97971 1787 ft 190 kts 167°
2026-04-30 21:53 40.47720 22.98354 2315 ft 219 kts 167°
2026-04-30 21:54 40.46116 22.98800 2620 ft 251 kts 166°
2026-04-30 21:54 40.44331 22.99298 2950 ft 275 kts 166°
2026-04-30 21:54 40.42441 22.99830 3792 ft 277 kts 166°
2026-04-30 21:54 40.40562 23.00364 4886 ft 276 kts 166°
2026-04-30 21:55 40.38692 23.00899 5905 ft 278 kts 167°
2026-04-30 21:55 40.36765 23.01451 6652 ft 288 kts 167°
2026-04-30 21:55 40.34811 23.02073 7542 ft 292 kts 160°
2026-04-30 21:55 40.33175 23.03603 8535 ft 292 kts 130°
2026-04-30 21:56 40.32079 23.05885 9336 ft 300 kts 125°
2026-04-30 21:56 40.30529 23.07666 10138 ft 298 kts 159°
2026-04-30 21:56 40.28555 23.08546 10752 ft 308 kts 167°
2026-04-30 21:56 40.26411 23.09375 11016 ft 332 kts 167°
2026-04-30 21:57 40.24172 23.10289 11677 ft 341 kts 166°
2026-04-30 21:57 40.21906 23.11277 12463 ft 345 kts 165°
2026-04-30 21:57 40.19622 23.12312 13266 ft 350 kts 165°
2026-04-30 21:57 40.17312 23.13384 14043 ft 355 kts 165°
2026-04-30 21:58 40.14980 23.14477 14775 ft 357 kts 165°
2026-04-30 21:58 40.12633 23.15579 15543 ft 359 kts 165°
2026-04-30 21:58 40.10274 23.16693 16283 ft 363 kts 165°
2026-04-30 21:58 40.07900 23.17857 17011 ft 366 kts 165°
2026-04-30 21:59 40.05506 23.19046 17738 ft 370 kts 165°
2026-04-30 21:59 40.03092 23.20246 18465 ft 373 kts 165°
2026-04-30 21:59 40.00659 23.21451 19050 ft 376 kts 165°
2026-04-30 22:00 39.95707 23.23891 20210 ft 384 kts 165°
2026-04-30 22:00 39.90654 23.26373 21376 ft 392 kts 165°
2026-04-30 22:00 39.88088 23.27625 21955 ft 395 kts 166°
2026-04-30 22:01 39.85501 23.28884 22506 ft 399 kts 166°
2026-04-30 22:01 39.82886 23.30153 23074 ft 403 kts 166°
2026-04-30 22:01 39.80247 23.31433 23618 ft 407 kts 166°
2026-04-30 22:01 39.77584 23.32725 24074 ft 411 kts 166°
2026-04-30 22:02 39.75796 23.33591 24259 ft 416 kts 166°
2026-04-30 22:02 39.73061 23.34916 24609 ft 422 kts 166°
2026-04-30 22:02 39.70307 23.36260 25101 ft 424 kts 166°
2026-04-30 22:02 39.67540 23.37616 25586 ft 426 kts 166°
2026-04-30 22:03 39.64759 23.38979 26040 ft 428 kts 166°
2026-04-30 22:03 39.61962 23.40347 26457 ft 432 kts 166°
2026-04-30 22:03 39.59140 23.41724 26904 ft 434 kts 166°
2026-04-30 22:03 39.56322 23.43100 27487 ft 432 kts 166°
2026-04-30 22:04 39.53518 23.44468 28097 ft 429 kts 166°
2026-04-30 22:04 39.50732 23.45824 28690 ft 427 kts 166°
2026-04-30 22:04 39.45156 23.48528 29738 ft 427 kts 166°
2026-04-30 22:05 39.42378 23.49877 30272 ft 426 kts 166°
2026-04-30 22:05 39.39603 23.51222 30714 ft 426 kts 166°
2026-04-30 22:05 39.36824 23.52566 31088 ft 427 kts 166°
2026-04-30 22:06 39.31200 23.55281 31119 ft 432 kts 166°
2026-04-30 22:06 39.22832 23.59324 31152 ft 428 kts 166°
2026-04-30 22:07 39.17205 23.61782 31142 ft 422 kts 176°
2026-04-30 22:07 39.11442 23.62685 31135 ft 417 kts 181°
2026-04-30 22:08 39.05667 23.63452 31129 ft 417 kts 181°
2026-04-30 22:08 38.99887 23.64283 31129 ft 418 kts 180°
2026-04-30 22:09 38.94106 23.65133 31128 ft 418 kts 180°
2026-04-30 22:09 38.88321 23.65991 31126 ft 418 kts 180°
2026-04-30 22:10 38.82542 23.66847 31114 ft 417 kts 180°
2026-04-30 22:10 38.76771 23.67698 31114 ft 417 kts 180°
2026-04-30 22:11 38.68109 23.68969 31105 ft 418 kts 180°
2026-04-30 22:12 38.62336 23.69815 31105 ft 418 kts 180°
2026-04-30 22:12 38.56549 23.70661 31106 ft 419 kts 180°
2026-04-30 22:13 38.50742 23.71508 31100 ft 421 kts 180°
2026-04-30 22:13 38.44964 23.72351 31111 ft 421 kts 180°
2026-04-30 22:14 38.39137 23.73198 31077 ft 422 kts 180°
2026-04-30 22:14 38.33300 23.74046 31084 ft 423 kts 180°
2026-04-30 22:15 38.27452 23.74894 31096 ft 423 kts 180°
2026-04-30 22:15 38.21594 23.75737 31080 ft 424 kts 179°
2026-04-30 22:16 38.15740 23.76588 31029 ft 423 kts 179°
2026-04-30 22:17 38.04090 23.78252 31041 ft 421 kts 179°
2026-04-30 22:17 37.95367 23.79488 31039 ft 420 kts 179°
2026-04-30 22:18 37.86634 23.80744 31048 ft 422 kts 178°
2026-04-30 22:19 37.77891 23.82168 31048 ft 423 kts 178°
2026-04-30 22:20 37.69140 23.83596 31041 ft 423 kts 178°
2026-04-30 22:20 37.60371 23.85005 31035 ft 424 kts 178°
2026-04-30 22:21 37.54508 23.85944 31034 ft 425 kts 178°
2026-04-30 22:21 37.48641 23.86882 31029 ft 425 kts 178°
2026-04-30 22:22 37.42803 23.87814 31016 ft 426 kts 178°
2026-04-30 22:22 37.36912 23.88752 31026 ft 427 kts 178°
2026-04-30 22:23 37.31014 23.89691 31011 ft 427 kts 178°
2026-04-30 22:23 37.25113 23.90629 31001 ft 428 kts 178°
2026-04-30 22:24 37.19283 23.91558 30816 ft 415 kts 178°
2026-04-30 22:24 37.16444 23.92011 30574 ft 408 kts 178°
2026-04-30 22:24 37.13634 23.92456 30221 ft 406 kts 178°
2026-04-30 22:25 37.10842 23.92897 29879 ft 403 kts 178°
2026-04-30 22:25 37.08071 23.93334 29497 ft 399 kts 178°
2026-04-30 22:25 37.05329 23.93766 29115 ft 395 kts 177°
2026-04-30 22:25 37.02613 23.94195 28763 ft 392 kts 177°
2026-04-30 22:26 36.97248 23.95040 28050 ft 385 kts 177°
2026-04-30 22:26 36.94597 23.95457 27696 ft 382 kts 177°
2026-04-30 22:26 36.91968 23.95871 27334 ft 380 kts 177°
2026-04-30 22:27 36.89356 23.96281 27009 ft 377 kts 177°
2026-04-30 22:27 36.86766 23.96688 26670 ft 374 kts 177°
2026-04-30 22:27 36.81633 23.97493 25988 ft 369 kts 177°
2026-04-30 22:28 36.76564 23.98287 25326 ft 365 kts 176°
2026-04-30 22:28 36.74090 23.98674 25005 ft 363 kts 176°
2026-04-30 22:29 36.66633 23.99840 24028 ft 357 kts 176°
2026-04-30 22:29 36.64172 24.00224 23698 ft 356 kts 176°
2026-04-30 22:30 36.54447 24.01739 22281 ft 347 kts 176°
2026-04-30 22:31 36.47337 24.02843 21311 ft 340 kts 176°
2026-04-30 22:32 36.40492 24.04668 20357 ft 342 kts 148°
2026-04-30 22:32 36.37322 24.08955 19923 ft 338 kts 128°
2026-04-30 22:33 36.33207 24.15997 18987 ft 335 kts 128°
2026-04-30 22:33 36.30446 24.20627 18372 ft 333 kts 128°
2026-04-30 22:34 36.26294 24.27517 17354 ft 331 kts 129°
2026-04-30 22:35 36.23551 24.32059 16740 ft 327 kts 129°
2026-04-30 22:36 36.16055 24.35365 15593 ft 292 kts 197°
2026-04-30 22:36 36.14080 24.34804 15293 ft 291 kts 198°
2026-04-30 22:37 36.08203 24.33093 14422 ft 288 kts 197°
2026-04-30 22:37 36.06255 24.32541 14133 ft 287 kts 197°
2026-04-30 22:37 36.02400 24.31462 13539 ft 285 kts 197°
2026-04-30 22:38 35.98548 24.30351 12932 ft 282 kts 199°
2026-04-30 22:38 35.94771 24.29120 12356 ft 279 kts 199°
2026-04-30 22:39 35.92897 24.28506 12066 ft 278 kts 199°
2026-04-30 22:39 35.87353 24.26586 11112 ft 271 kts 213°
2026-04-30 22:40 35.83104 24.22106 9638 ft 267 kts 225°
2026-04-30 22:41 35.78958 24.17598 8218 ft 263 kts 224°
2026-04-30 22:41 35.76194 24.14647 7295 ft 261 kts 224°
2026-04-30 22:42 35.70803 24.08937 5920 ft 242 kts 224°
2026-04-30 22:43 35.68335 24.06330 5440 ft 227 kts 224°
2026-04-30 22:43 35.66007 24.03869 4853 ft 220 kts 224°
2026-04-30 22:44 35.63850 24.01600 4607 ft 191 kts 224°
2026-04-30 22:45 35.59769 23.98002 3330 ft 185 kts 180°
2026-04-30 22:45 35.57935 24.00146 2659 ft 187 kts 119°
2026-04-30 22:46 35.57015 24.02856 2204 ft 163 kts 113°
2026-04-30 22:47 35.55396 24.07960 1387 ft 155 kts 112°
2026-04-30 22:47 35.54638 24.10381 1003 ft 147 kts 112°
2026-04-30 22:48 35.53935 24.12654 602 ft 139 kts 112°
2026-04-30 22:49 35.53191 24.14918 458 ft 23 kts 111°